Location: Jetmore Oil Field
(38.1181°N, 99.9337°W)
Time: 18:30:50
(UTC+00:00)

USA 267 - Pass Details

Date: 17 February 2020
Orbit: 1101 x 1107 km, 123.0° (Epoch: 26 March)

Event Time Altitude Azimuth Distance (km) Brightness Sun altitude
Rises 10:53:38 0° 150° (SSE) 3,902 6.4 -30.9°
Reaches altitude 10° 10:56:12 10° 155° (SSE) 2,947 5.7 -30.5°
Enters shadow 11:00:41 41° 186° (S) 1,553 3.9 -29.6°
